This is the latest recevied weather packets stored in our database for station/object JG6YPS-13. If no packets are shown the sender has not sent any weather packets the latest 10 day(s).
| Time | Temp. | Humidity | Pressure | Rain* | Wind** | Luminosity | Snow |
|---|---|---|---|---|---|---|---|
| 1777636873 | 15° C | 72% | 1012.7 hPa | 0 mm | - | - | - |
| 1777636273 | 15° C | 71% | 1012.4 hPa | 0 mm | - | - | - |
| 1777635674 | 15° C | 70% | 1012.1 hPa | 0 mm | - | - | - |
| 1777635074 | 15.56° C | 70% | 1012.1 hPa | 0 mm | - | - | - |
| 1777634475 | 15.56° C | 70% | 1012 hPa | 0 mm | - | - | - |
| 1777633876 | 15.56° C | 71% | 1012 hPa | 0 mm | - | - | - |
| 1777633276 | 15.56° C | 73% | 1011.8 hPa | 0 mm | - | - | - |
| 1777632677 | 15.56° C | 72% | 1011.7 hPa | 0 mm | - | - | - |
| 1777632077 | 15.56° C | 71% | 1011.6 hPa | 0 mm | - | - | - |
| 1777631477 | 15.56° C | 70% | 1011.6 hPa | 0 mm | - | - | - |
| 1777630878 | 16.11° C | 70% | 1011.4 hPa | 0 mm | - | - | - |
| 1777630278 | 16.11° C | 69% | 1011.5 hPa | 0 mm | - | - | - |
| 1777629679 | 16.67° C | 67% | 1011.4 hPa | 0 mm | - | - | - |
| 1777629079 | 17.22° C | 65% | 1011.2 hPa | 0 mm | - | - | - |
| 1777628479 | 17.22° C | 67% | 1011 hPa | 0 mm | - | - | - |
| 1777627880 | 17.22° C | 67% | 1010.9 hPa | 0 mm | - | - | - |
| 1777627280 | 17.22° C | 67% | 1010.8 hPa | 0 mm | - | - | - |
| 1777626680 | 17.78° C | 66% | 1010.6 hPa | 0 mm | - | - | - |
| 1777626081 | 17.78° C | 65% | 1010.5 hPa | 0 mm | - | - | - |
| 1777625481 | 17.78° C | 65% | 1010.5 hPa | 0 mm | - | - | - |
| 1777624882 | 17.78° C | 64% | 1010.6 hPa | 0 mm | - | - | - |
| 1777624282 | 18.33° C | 62% | 1010.6 hPa | 0 mm | - | - | - |
| 1777623682 | 17.78° C | 60% | 1010.2 hPa | 0 mm | - | - | - |
| 1777623083 | 18.33° C | 60% | 1010.1 hPa | 0 mm | - | - | - |
| 1777622483 | 17.78° C | 57% | 1010.1 hPa | 0 mm | - | - | - |
* Rain latest hour (hover to see other rain measurements)
** Current wind speed in m/s (hover to see current wind gust speed)